Oujda, Morocco

3:11 AM WET on June 25, 2017 (GMT +0000)
Oujda

Weather History for GMFO - February, 2013

Change the Weather History Date:

Wednesday, February 27, 2013

  Actual Average Record
Temperature  
Mean Temperature 41 °F -  
Max Temperature 53 °F 66 °F 78 °F (2002)
Min Temperature 29 °F 43 °F 29 °F (2013)
Degree Days  
Heating Degree Days 24    
Moisture  
Dew Point 37 °F    
Average Humidity 79    
Maximum Humidity 93    
Minimum Humidity 50    
Precipitation  
Precipitation 0.00 in 0.06 in - ()
Sea Level Pressure  
Sea Level Pressure 29.92 in    
Wind  
Wind Speed 5 mph ()    
Max Wind Speed 15 mph    
Max Gust Speed -    
Visibility 6.6 miles    
Events      
Averages and records for this station are not official NWS values.
T = Trace of Precipitation, MM = Missing Value Source: Averaged Metar Reports

Daily Weather History Graph

Daily Weather History Graph

Search for Another Location

Airport or City:

Trip Planner

Search our weather history database for the weather conditions in past years. The results will help you decide how hot, cold, wet, or windy it might be!

Date:

Astronomy

Feb. 27, 2013 Rise Set
Actual Time 6:39 AM WET 6:01 PM WET
Civil Twilight 6:14 AM WET 6:27 PM WET
Nautical Twilight 5:44 AM WET 6:56 PM WET
Astronomical Twilight 5:15 AM WET 7:25 PM WET
Moon 7:59 PM WET (2/27) 7:12 AM WET (2/27)
Length of Visible Light 12h 13m
Length of Day
11h 22m
Full, 97% of the Moon is Illuminated
Feb 27
Full
Mar 4
Last Quarter
Mar 11
New
Mar 19
First Quarter
Mar 27
Full

Hourly Weather History & Observations

Time (WET) Temp. Windchill Dew Point Humidity Pressure Visibility Wind Dir Wind Speed Gust Speed Precip Events Conditions
12:00 AM 36 °F - 32 °F 81% 30.10 in 6 mi South 5.8 mph - -   Scattered Clouds
12:00 AM 37.4 °F 32.8 °F 32.0 °F 81% 30.04 in 6.2 mi South 5.8 mph - N/A   Partly Cloudy
1:00 AM 35.6 °F 31.7 °F 32.0 °F 87% 30.01 in 6.2 mi SSW 4.6 mph - N/A   Partly Cloudy
2:00 AM 35.6 °F 31.7 °F 32.0 °F 87% 29.98 in 6.2 mi SSW 4.6 mph - N/A   Partly Cloudy
3:00 AM 36 °F - 34 °F 88% 30.03 in 6 mi SSW 4.6 mph - -   Scattered Clouds
3:00 AM 35.6 °F 31.7 °F 33.8 °F 93% 29.98 in 6.2 mi SSW 4.6 mph - N/A   Partly Cloudy
4:00 AM 35.6 °F 31.7 °F 33.8 °F 93% 29.95 in 6.2 mi SSW 4.6 mph - N/A   Partly Cloudy
5:00 AM 33.8 °F 29.6 °F 32.0 °F 93% 29.92 in 6.2 mi SSW 4.6 mph - N/A   Partly Cloudy
6:00 AM 32 °F - 30 °F 89% 30.01 in 12 mi SSW 4.6 mph - -   Scattered Clouds
6:00 AM 32.0 °F 27.5 °F 30.2 °F 93% 29.92 in 6.2 mi SSW 4.6 mph - N/A   Partly Cloudy
7:00 AM 32.0 °F 27.5 °F 30.2 °F 93% 29.92 in - SW 4.6 mph - N/A   Clear
8:00 AM 39.2 °F 37.0 °F 37.4 °F 93% 29.92 in 5.0 mi SW 3.5 mph - N/A   Scattered Clouds
9:00 AM 42 °F - 40 °F 89% 29.98 in 6 mi SSW 3.5 mph - -   Partly Cloudy
9:00 AM 42.8 °F 41.1 °F 39.2 °F 87% 29.92 in 6.2 mi SSW 3.5 mph - N/A   Scattered Clouds
10:00 AM 46.4 °F 45.2 °F 37.4 °F 71% 29.92 in - NNW 3.5 mph - N/A   Clear
12:00 PM 51.8 °F - 39.2 °F 62% 29.89 in 6.2 mi North 6.9 mph - N/A   Scattered Clouds
2:00 PM 53.6 °F - 39.2 °F 58% 29.83 in 6.2 mi North 12.7 mph - N/A   Partly Cloudy
3:00 PM 53 °F - 40 °F 50% 29.84 in 12 mi North 12.7 mph - -   Scattered Clouds
3:00 PM 53.6 °F - 39.2 °F 58% 29.83 in 6.2 mi North 12.7 mph - N/A   Partly Cloudy
4:00 PM 53.6 °F - 39.2 °F 58% 29.83 in 6.2 mi North 13.8 mph - N/A   Partly Cloudy
5:00 PM 50.0 °F - 39.2 °F 66% 29.83 in 6.2 mi North 15.0 mph - N/A   Partly Cloudy
8:00 PM 48.2 °F - 42.8 °F 82% 29.86 in 6.2 mi North 4.6 mph - N/A   Partly Cloudy
9:00 PM 48 °F - 42 °F 72% 29.90 in 6 mi North 5.8 mph - -   Mostly Cloudy
9:00 PM 48.2 °F - 41.0 °F 76% 29.86 in 6.2 mi North 5.8 mph - N/A   Mostly Cloudy
10:00 PM 48.2 °F - 41.0 °F 76% 29.89 in 6.2 mi Variable 2.3 mph - N/A   Mostly Cloudy
11:00 PM 46.4 °F 45.2 °F 41.0 °F 81% 29.86 in 6.2 mi NE 3.5 mph - N/A   Mostly Cloudy
11:45 PM 46 °F - 41 °F 75% 29.89 in 6 mi Calm Calm - -   Mostly Cloudy